Home   Weather   Flint   Past weeks

Flag for USA Past Weather in Flint, Michigan, USA — Yesterday and Last 2 Weeks

Now
64 °F

Sunny.


Feels Like: 64 °F
Forecast: 48 / 68 °F
Wind: 9 mph from Southeast

Location: Bishop International Airport

Current Time: Apr 24, 2017 at 9:15:55 pm

Latest Report: Apr 24, 2017 at 7:53 pm


Visibility: 10 mi

Pressure: 29.92 "Hg

Humidity: 28%

Dew Point: 30 °F

Location of FlintLocation

Past Weather in Flint — Graph

°F

Flint Temperature Yesterday

Maximum temperature yesterday: 68 °F (at 4:53 pm)
Minimum temperature yesterday: 33 °F (at 5:53 am)
Average temperature yesterday: 53 °F

High & Low Weather Summary for the Past Weeks

 TemperatureHumidityPressure
High81 °F (Apr 15, 3:53 pm)97% (Apr 10, 11:53 pm)30.51 "Hg (Apr 10, 11:53 pm)
Low33 °F (Apr 23, 5:53 am)23% (Apr 23, 1:53 pm)29.74 "Hg (Apr 20, 5:00 pm)
Average54 °F66%30.09 "Hg
* Reported Apr 9 8:53 pm — Apr 24 7:53 pm, Flint, Weather by CustomWeather, © 2017

Note: Actual official high and low records may vary slightly from our data, if they occured in-between our weather recording intervals... More about our weather records

Advertising

Flint Weather History for the Previous 24 Hours

Scroll right to see more
 ConditionsComfort  
Time TempWeatherWind HumidityBarometerVisibility
7:53 pm
Mon, Apr 24
64 °FSunny.9 mph28%29.92 "Hg10 mi
6:53 pm67 °FSunny.12 mph26%29.93 "Hg10 mi
5:53 pm69 °FSunny.10 mph24%29.94 "Hg10 mi
4:53 pm70 °FSunny.10 mph27%29.96 "Hg10 mi
3:53 pm70 °FSunny.10 mph28%29.98 "Hg10 mi
2:53 pm69 °FSunny.10 mph31%30.01 "Hg10 mi
1:53 pm69 °FSunny.13 mph30%30.03 "Hg10 mi
12:53 pm68 °FSunny.7 mph32%30.05 "Hg10 mi
11:53 am65 °FSunny.6 mph42%30.06 "Hg10 mi
10:53 am58 °FSunny.5 mph54%30.09 "Hg10 mi
9:53 am53 °FSunny.5 mph64%30.10 "Hg10 mi
8:53 am47 °FSunny.6 mph74%30.11 "Hg10 mi
7:53 am41 °FSunny.6 mph86%30.10 "Hg10 mi
6:53 am38 °FSunny.6 mph90%30.10 "Hg10 mi
5:53 am37 °FClear.7 mph93%30.09 "Hg10 mi
4:53 am40 °FClear.8 mph86%30.09 "Hg10 mi
3:53 am40 °FClear.9 mph86%30.09 "Hg10 mi
2:53 am41 °FClear.7 mph82%30.09 "Hg10 mi
1:53 am43 °FClear.8 mph79%30.10 "Hg10 mi
12:53 am44 °FClear.10 mph79%30.10 "Hg10 mi
11:53 pm
Sun, Apr 23
46 °FClear.13 mph77%30.10 "Hg10 mi
10:53 pm51 °FClear.12 mph69%30.08 "Hg10 mi
9:53 pm50 °FClear.6 mph63%30.06 "Hg10 mi
Weather by CustomWeather, © 2017

See weather overviewHow to use our weather pages